| time (UTC) | temp F | wind direction | speed knots | gust knots | rain 1hr in | rain 24hr in | rain mn in | humidity % | barometer mb |
| 20260507151728 | 45 | 340 | 8.7 | 0.0 | 0.00 | 0.00 | 0.00 | 99 | |
| 20260507141729 | 45 | 330 | 10.4 | 0.0 | 0.00 | 0.00 | 0.00 | 99 | |
| 20260507131829 | 46 | 20 | 5.2 | 0.0 | 0.00 | 0.00 | 0.00 | 99 | |
| 20260507121729 | 46 | 10 | 5.2 | 0.0 | 0.00 | 0.00 | 0.00 | 99 | |
| 20260507111729 | 46 | 340 | 5.2 | 0.0 | 0.00 | 0.00 | 0.00 | 99 | |
| 20260507101928 | 46 | 320 | 4.3 | 0.0 | 0.00 | 0.00 | 0.00 | 99 | |
| 20260507091729 | 46 | 20 | 4.3 | 0.0 | 0.00 | 0.00 | 0.00 | 99 | |
| 20260507081729 | 46 | 30 | 2.6 | 0.0 | 0.00 | 0.00 | 0.00 | 99 | |
| 20260507071728 | 46 | 350 | 2.6 | 0.0 | 0.00 | 0.00 | 0.00 | 99 | |
| 20260507061728 | 46 | 10 | 4.3 | 0.0 | 0.00 | 0.00 | 0.00 | 99 | |
| 20260507051728 | 46 | 350 | 1.7 | 0.0 | 0.00 | 0.00 | 0.00 | 99 | |
| 20260507041930 | 46 | 30 | 1.7 | 0.0 | 0.00 | 0.00 | 0.00 | 99 | |
| 20260507031728 | 46 | 290 | 2.6 | 0.0 | 0.00 | 0.00 | 0.00 | 99 | |
| 20260507021727 | 46 | 100 | 2.6 | 0.0 | 0.00 | 0.00 | 0.00 | 99 | |
| 20260507011827 | 46 | 350 | 5.2 | 0.0 | 0.00 | 0.00 | 0.00 | 99 | |
| 20260507001729 | 46 | 10 | 5.2 | 0.0 | 0.00 | 0.00 | 0.00 | 99 | |
| 20260506231728 | 48 | 320 | 5.2 | 0.0 | 0.00 | 0.00 | 0.00 | 99 | |
| 20260506221929 | 50 | 20 | 2.6 | 0.0 | 0.00 | 0.00 | 0.00 | 99 | |
| 20260506211728 | 50 | 10 | 6.1 | 0.0 | 0.00 | 0.00 | 0.00 | 99 | |
| 20260506201729 | 50 | 10 | 7.0 | 0.0 | 0.00 | 0.00 | 0.00 | 99 | |
| 20260506191801 | 52 | 10 | 5.2 | 0.0 | 0.00 | 0.00 | 0.00 | 93 | |
| 20260506181801 | 55 | 20 | 2.6 | 0.0 | 0.00 | 0.00 | 0.00 | 87 | |
| 20260506171728 | 57 | 0 | 0.0 | 0.0 | 0.00 | 0.00 | 0.00 | 76 | |
| 20260506161928 | 57 | 160 | 7.8 | 0.0 | 0.00 | 0.00 | 0.00 | 67 |